Location: Henau
(47.4548°N, 9.1164°E)
Time: 22:02:12
(UTC+00:00)

CZ-2C R/B - Pass Details

Date: 03 March 2021
Orbit: 783 x 871 km, 98.2° (Epoch: 14 April)

Event Time Altitude Azimuth Distance (km) Brightness Sun altitude
Rises 19:40:47 0° 6° (N) 3,438 6.0 -25.7°
Reaches altitude 10° 19:43:24 10° 357° (N) 2,486 5.4 -26.1°
Maximum altitude 19:48:11 31° 297° (WNW) 1,423 4.4 -26.8°
Drops below altitude 10° 19:52:52 10° 236° (SW) 2,422 5.5 -27.6°
Sets 19:55:24 0° 226° (SW) 3,336 6.1 -28.0°
